Change the Weather History Date:

Monday, December 26, 2011

  Actual Average Record
Temperature  
Mean Temperature 32 °F -  
Max Temperature 39 °F 38 °F 73 °F (1942)
Min Temperature 24 °F 20 °F -1 °F (1924)
Degree Days  
Heating Degree Days 34    
Moisture  
Dew Point 30 °F    
Average Humidity 83    
Maximum Humidity 93    
Minimum Humidity 68    
Precipitation  
Precipitation 0.14 in - - ()
Sea Level Pressure  
Sea Level Pressure 30.20 in    
Wind  
Wind Speed 1 mph (ESE)    
Max Wind Speed 8 mph    
Max Gust Speed -    
Visibility 10 miles    
Events Rain    
Averages and records for this station are not official NWS values.
T = Trace of Precipitation, MM = Missing Value Source: NWS Daily Summary

Daily Weather History Graph

Daily Weather History Graph

Search for Another Location

Airport or City:

Trip Planner

Search our weather history database for the weather conditions in past years. The results will help you decide how hot, cold, wet, or windy it might be!

Date:

Astronomy

Dec. 26, 2011 Rise Set
Actual Time 7:10 AM CST 4:44 PM CST
Civil Twilight 6:41 AM CST 5:13 PM CST
Nautical Twilight 6:08 AM CST 5:46 PM CST
Astronomical Twilight 5:36 AM CST 6:18 PM CST
Moon 8:32 AM CST (12/26) 7:09 PM CST (12/26)
Length of Visible Light 10h 32m
Length of Day
9h 33m
Waxing Crescent, 5% of the Moon is Illuminated
Dec 26
Waxing Crescent
Jan 1
First Quarter
Jan 9
Full
Jan 16
Last Quarter
Jan 23
New

Hourly Weather History & Observations

Time (CST) Temp. Windchill Dew Point Humidity Pressure Visibility Wind Dir Wind Speed Gust Speed Precip Events Conditions
12:52 AM 27.0 °F - 24.1 °F 89% 30.38 in 10.0 mi Calm Calm - N/A   Clear
2:52 AM 26.1 °F - 23.0 °F 88% 30.39 in 10.0 mi Calm Calm - N/A   Clear
3:52 AM 27.0 °F - 24.1 °F 89% 30.36 in 10.0 mi Calm Calm - N/A   Clear
6:52 AM 24.1 °F - 21.9 °F 91% 30.35 in 10.0 mi Calm Calm - N/A   Clear
7:52 AM 25.0 °F - 21.9 °F 88% 30.35 in 10.0 mi Calm Calm - N/A   Clear
8:52 AM 30.9 °F - 28.0 °F 89% 30.35 in 10.0 mi Calm Calm - N/A   Clear
9:52 AM 34.0 °F - 30.9 °F 89% 30.31 in 10.0 mi Calm Calm - N/A   Clear
10:52 AM 37.9 °F 35.5 °F 30.9 °F 76% 30.29 in 10.0 mi ESE 3.5 mph - N/A   Clear
11:52 AM 39.9 °F 34.5 °F 30.0 °F 68% 30.25 in 10.0 mi South 8.1 mph - N/A   Clear
12:52 PM 39.9 °F 35.8 °F 30.0 °F 68% 30.20 in 10.0 mi South 5.8 mph - N/A   Clear
1:52 PM 39.9 °F 37.8 °F 30.0 °F 68% 30.16 in 10.0 mi SE 3.5 mph - N/A   Clear
2:52 PM 39.9 °F 36.7 °F 30.9 °F 70% 30.14 in 10.0 mi ESE 4.6 mph - N/A   Mostly Cloudy
4:52 PM 39.0 °F - 33.1 °F 79% 30.14 in 10.0 mi Calm Calm - 0.00 in Rain Light Rain
5:52 PM 37.9 °F - 35.1 °F 89% 30.12 in 10.0 mi Calm Calm - 0.01 in Rain Light Rain
6:52 PM 37.0 °F 34.5 °F 34.0 °F 89% 30.07 in 10.0 mi East 3.5 mph - 0.00 in   Overcast
7:52 PM 37.0 °F 34.5 °F 34.0 °F 89% 30.04 in 10.0 mi East 3.5 mph - N/A   Overcast
8:52 PM 37.9 °F 34.4 °F 33.1 °F 83% 29.99 in 10.0 mi ENE 4.6 mph - 0.00 in Rain Light Rain
10:52 PM 37.0 °F - 34.0 °F 89% 29.94 in 10.0 mi Calm Calm - 0.03 in Rain Light Rain
11:52 PM 37.0 °F 34.5 °F 35.1 °F 93% 29.90 in 6.0 mi NNW 3.5 mph - 0.10 in Rain Light Rain